STARLINK-3319 (50847 NORAD) Tracking and Keplerian Element Data

This shows tracking and keplerian element data for the satellite.

Feedback or suggestion? Click here.




ElementValue
Catalog50847
NameSTARLINK-3319
Epoch Orbit375
Epoch Day22.91667824
Epoch Year2022
RAAN119.7487
Inclination53.2175
Eccentricity0.0001135
Argument of Perigee57.1665
Mean Anonmoly263.614
Mean Motion15.75384533
Decay Rate-0.00821357
L11 50847U 22001AW 22022.91667824 -.00821357 00000+0 -58585-2 0 9990
L22 50847 53.2175 119.7487 0001135 57.1665 263.6140 15.75384533 3757

Live tracking and technical data element details for STARLINK-3319 (NORAD 50847). STARLINK-3319 can be tracked NOW for your location showing map with azimuth and elevation plus other details from your city location.

Track the satellite on the map from your city or location and see movement details for azimuth, elevation, latitude, longitude, range, height, and movement on the map or in text.







IsCatalogInMostPopularTable: catalog: 50847, numindb: 3
Update: records affected: 1



GetName: 50847 STARLINK-3319

Hit Count: updated at: Mon, 24 Jan 2022 00:34:54 GMT